This is the latest recevied weather packets stored in our database for station/object VK3PBR-10. If no packets are shown the sender has not sent any weather packets the latest 10 day(s).
| Time | Temp. | Humidity | Pressure | Rain* | Wind** | Luminosity | Snow |
|---|---|---|---|---|---|---|---|
| 1787942821 | 12.22° C | 67% | 1034.7 hPa | - | - | - | - |
| 1787941920 | 11.67° C | 68% | 1034.7 hPa | - | - | - | - |
| 1787941020 | 11.67° C | 67% | 1034.7 hPa | - | - | - | - |
| 1787940119 | 11.11° C | 68% | 1034.7 hPa | - | - | - | - |
| 1787939219 | 11.11° C | 68% | 1034.5 hPa | - | - | - | - |
| 1787938319 | 11.67° C | 68% | 1034.5 hPa | - | - | - | - |
| 1787937419 | 12.22° C | 67% | 1034.6 hPa | - | - | - | - |
| 1787936519 | 12.22° C | 67% | 1034.7 hPa | - | - | - | - |
| 1787935619 | 12.22° C | 67% | 1034.7 hPa | - | - | - | - |
| 1787934718 | 12.22° C | 67% | 1034.6 hPa | - | - | - | - |
| 1787933818 | 12.22° C | 68% | 1034.6 hPa | - | - | - | - |
| 1787932918 | 11.67° C | 68% | 1034.8 hPa | - | - | - | - |
| 1787932018 | 11.11° C | 69% | 1034.8 hPa | - | - | - | - |
| 1787931118 | 11.67° C | 68% | 1034.8 hPa | - | - | - | - |
| 1787930218 | 12.22° C | 67% | 1034.7 hPa | - | - | - | - |
| 1787929317 | 12.78° C | 67% | 1034.7 hPa | - | - | - | - |
| 1787928416 | 12.22° C | 68% | 1034.6 hPa | - | - | - | - |
| 1787927516 | 12.78° C | 67% | 1034.5 hPa | - | - | - | - |
| 1787926616 | 12.78° C | 67% | 1034.5 hPa | - | - | - | - |
| 1787925716 | 12.78° C | 67% | 1034.5 hPa | - | - | - | - |
| 1787924816 | 12.22° C | 68% | 1034.6 hPa | - | - | - | - |
| 1787923915 | 12.22° C | 68% | 1034.4 hPa | - | - | - | - |
| 1787923015 | 12.78° C | 68% | 1034.4 hPa | - | - | - | - |
| 1787922115 | 12.22° C | 69% | 1034.4 hPa | - | - | - | - |
| 1787921215 | 12.22° C | 67% | 1034.4 hPa | - | - | - | - |
* Rain since midnight (hover to see other rain measurements)
** Current wind speed in m/s (hover to see current wind gust speed)